Location: Bratsk-Energetik
(56.3300°N, 101.7600°E)
Time: 22:16:30
(UTC+08:00)

ISS - Pass Details

Date: 22 May 2017
Orbit: 402 x 409 km, 51.6° (Epoch: 25 May)

Event Time Altitude Azimuth Distance (km) Brightness Sun altitude
Exits shadow 00:23:39 14° 122° (ESE) 1,235 -1.8 -12.7°
Drops below altitude 10° 00:24:34 10° 108° (ESE) 1,467 -1.3 -12.8°
Sets 00:27:05 0° 89° (E) 2,329 -0.1 -12.8°
